Time,TemperatureF,DewpointF,PressureIn,WindDirection,WindDirectionDegrees,WindSpeedMPH,WindSpeedGustMPH,Humidity,HourlyPrecipIn,Conditions,Clouds,dailyrainin,SoftwareType,DateUTC
2015-05-29 00:00:00,56.0,50.0,-100.00,NNE,19,3.0,10.0,79,-99.99,,,-99.99,,2015-05-29 06:00:00,
2015-05-29 00:32:00,56.0,50.0,-100.00,NNE,19,3.0,10.0,79,-99.99,,,-99.99,,2015-05-29 06:32:00,
2015-05-29 00:43:00,56.0,50.0,-100.00,NNE,19,3.0,10.0,79,-99.99,,,-99.99,,2015-05-29 06:43:00,
2015-05-29 00:52:00,56.0,50.0,-100.00,NNE,19,3.0,10.0,79,-99.99,,,-99.99,,2015-05-29 06:52:00,
2015-05-29 01:00:00,55.0,50.0,-100.00,East,79,7.0,10.0,83,-99.99,,,-99.99,,2015-05-29 07:00:00,
2015-05-29 01:31:00,55.0,50.0,-100.00,East,79,7.0,10.0,83,-99.99,,,-99.99,,2015-05-29 07:31:00,
2015-05-29 01:43:00,55.0,50.0,-100.00,East,79,7.0,10.0,83,-99.99,,,-99.99,,2015-05-29 07:43:00,
2015-05-29 01:52:00,55.0,50.0,-100.00,East,79,7.0,10.0,83,-99.99,,,-99.99,,2015-05-29 07:52:00,
2015-05-29 02:00:00,55.0,50.0,-100.00,NE,36,3.0,11.0,83,-99.99,,,-99.99,,2015-05-29 08:00:00,
2015-05-29 02:31:00,55.0,50.0,-100.00,NE,36,3.0,11.0,83,-99.99,,,-99.99,,2015-05-29 08:31:00,
2015-05-29 02:42:00,55.0,50.0,-100.00,NE,36,3.0,11.0,83,-99.99,,,-99.99,,2015-05-29 08:42:00,
2015-05-29 02:51:00,55.0,50.0,-100.00,NE,36,3.0,11.0,83,-99.99,,,-99.99,,2015-05-29 08:51:00,
2015-05-29 03:00:00,52.0,48.0,-100.00,South,180,5.0,6.0,86,-99.99,,,-99.99,,2015-05-29 09:00:00,
2015-05-29 03:32:00,52.0,48.0,-100.00,South,180,5.0,6.0,86,-99.99,,,-99.99,,2015-05-29 09:32:00,
2015-05-29 03:43:00,52.0,48.0,-100.00,South,180,5.0,6.0,86,-99.99,,,-99.99,,2015-05-29 09:43:00,
2015-05-29 03:51:00,52.0,48.0,-100.00,South,180,5.0,6.0,86,-99.99,,,-99.99,,2015-05-29 09:51:00,
2015-05-29 04:00:00,48.0,47.0,-100.00,SSW,197,3.0,5.0,95,-99.99,,,-99.99,,2015-05-29 10:00:00,
2015-05-29 04:31:00,48.0,47.0,-100.00,SSW,197,3.0,5.0,95,-99.99,,,-99.99,,2015-05-29 10:31:00,
2015-05-29 04:42:00,48.0,47.0,-100.00,SSW,197,3.0,5.0,95,-99.99,,,-99.99,,2015-05-29 10:42:00,
2015-05-29 04:51:00,48.0,47.0,-100.00,SSW,197,3.0,5.0,95,-99.99,,,-99.99,,2015-05-29 10:51:00,
2015-05-29 05:00:00,47.0,47.0,-100.00,NNW,343,2.0,6.0,99,-99.99,,,-99.99,,2015-05-29 11:00:00,
2015-05-29 05:32:00,47.0,47.0,-100.00,NNW,343,2.0,6.0,99,-99.99,,,-99.99,,2015-05-29 11:32:00,
2015-05-29 05:42:00,47.0,47.0,-100.00,NNW,343,2.0,6.0,99,-99.99,,,-99.99,,2015-05-29 11:42:00,
2015-05-29 05:52:00,47.0,47.0,-100.00,NNW,343,2.0,6.0,99,-99.99,,,-99.99,,2015-05-29 11:52:00,
2015-05-29 06:00:00,46.0,46.0,-100.00,West,260,3.0,4.0,99,-99.99,,,-99.99,,2015-05-29 12:00:00,
2015-05-29 06:32:00,46.0,46.0,-100.00,West,260,3.0,4.0,99,-99.99,,,-99.99,,2015-05-29 12:32:00,
2015-05-29 06:42:00,46.0,46.0,-100.00,West,260,3.0,4.0,99,-99.99,,,-99.99,,2015-05-29 12:42:00,
2015-05-29 06:52:00,46.0,46.0,-100.00,West,260,3.0,4.0,99,-99.99,,,-99.99,,2015-05-29 12:52:00,
2015-05-29 07:00:00,50.0,50.0,-100.00,WNW,289,1.0,4.0,99,-99.99,,,-99.99,,2015-05-29 13:00:00,
2015-05-29 07:31:00,50.0,50.0,-100.00,WNW,289,1.0,4.0,99,-99.99,,,-99.99,,2015-05-29 13:31:00,
2015-05-29 07:42:00,50.0,50.0,-100.00,WNW,289,1.0,4.0,99,-99.99,,,-99.99,,2015-05-29 13:42:00,
2015-05-29 07:51:00,50.0,50.0,-100.00,WNW,289,1.0,4.0,99,-99.99,,,-99.99,,2015-05-29 13:51:00,
2015-05-29 08:00:00,54.0,51.0,-100.00,NW,307,3.0,4.0,88,-99.99,,,-99.99,,2015-05-29 14:00:00,
2015-05-29 08:31:00,54.0,51.0,-100.00,NW,307,3.0,4.0,88,-99.99,,,-99.99,,2015-05-29 14:31:00,
2015-05-29 08:43:00,54.0,51.0,-100.00,NW,307,3.0,4.0,88,-99.99,,,-99.99,,2015-05-29 14:43:00,
2015-05-29 08:52:00,54.0,51.0,-100.00,NW,307,3.0,4.0,88,-99.99,,,-99.99,,2015-05-29 14:52:00,
2015-05-29 09:00:00,58.0,50.0,-100.00,NE,50,2.0,5.0,76,-99.99,,,-99.99,,2015-05-29 15:00:00,
2015-05-29 09:32:00,58.0,50.0,-100.00,NE,50,2.0,5.0,76,-99.99,,,-99.99,,2015-05-29 15:32:00,
2015-05-29 09:42:00,58.0,50.0,-100.00,NE,50,2.0,5.0,76,-99.99,,,-99.99,,2015-05-29 15:42:00,
2015-05-29 09:52:00,58.0,50.0,-100.00,NE,50,2.0,5.0,76,-99.99,,,-99.99,,2015-05-29 15:52:00,
2015-05-29 10:00:00,64.0,51.0,-100.00,NNE,33,4.0,9.0,62,-99.99,,,-99.99,,2015-05-29 16:00:00,
2015-05-29 10:43:00,64.0,51.0,-100.00,NNE,33,4.0,9.0,62,-99.99,,,-99.99,,2015-05-29 16:43:00,
2015-05-29 10:52:00,64.0,51.0,-100.00,NNE,33,4.0,9.0,62,-99.99,,,-99.99,,2015-05-29 16:52:00,
2015-05-29 11:00:00,66.0,50.0,-100.00,NE,38,5.0,10.0,57,-99.99,,,-99.99,,2015-05-29 17:00:00,
2015-05-29 11:32:00,66.0,50.0,-100.00,NE,38,5.0,10.0,57,-99.99,,,-99.99,,2015-05-29 17:32:00,
2015-05-29 11:43:00,66.0,50.0,-100.00,NE,38,5.0,10.0,57,-99.99,,,-99.99,,2015-05-29 17:43:00,
2015-05-29 11:52:00,66.0,50.0,-100.00,NE,38,5.0,10.0,57,-99.99,,,-99.99,,2015-05-29 17:52:00,
2015-05-29 12:00:00,70.0,49.0,-100.00,NNW,343,4.0,10.0,47,-99.99,,,-99.99,,2015-05-29 18:00:00,
2015-05-29 12:32:00,70.0,49.0,-100.00,NNW,343,4.0,10.0,47,-99.99,,,-99.99,,2015-05-29 18:32:00,
2015-05-29 12:43:00,70.0,49.0,-100.00,NNW,343,4.0,10.0,47,-99.99,,,-99.99,,2015-05-29 18:43:00,
2015-05-29 12:52:00,70.0,49.0,-100.00,NNW,343,4.0,10.0,47,-99.99,,,-99.99,,2015-05-29 18:52:00,
2015-05-29 13:00:00,72.0,48.0,-100.00,ENE,58,4.0,9.0,42,-99.99,,,-99.99,,2015-05-29 19:00:00,
2015-05-29 13:32:00,72.0,48.0,-100.00,ENE,58,4.0,9.0,42,-99.99,,,-99.99,,2015-05-29 19:32:00,
2015-05-29 13:44:00,72.0,48.0,-100.00,ENE,58,4.0,9.0,42,-99.99,,,-99.99,,2015-05-29 19:44:00,
2015-05-29 13:52:00,72.0,48.0,-100.00,ENE,58,4.0,9.0,42,-99.99,,,-99.99,,2015-05-29 19:52:00,
2015-05-29 14:00:00,73.0,45.0,-100.00,ENE,69,4.0,10.0,37,-99.99,,,-99.99,,2015-05-29 20:00:00,
2015-05-29 14:22:00,73.0,45.0,-100.00,ENE,69,4.0,10.0,37,-99.99,,,-99.99,,2015-05-29 20:22:00,
2015-05-29 14:32:00,73.0,45.0,-100.00,ENE,69,4.0,10.0,37,-99.99,,,-99.99,,2015-05-29 20:32:00,
2015-05-29 14:44:00,73.0,45.0,-100.00,ENE,69,4.0,10.0,37,-99.99,,,-99.99,,2015-05-29 20:44:00,
2015-05-29 14:51:00,73.0,45.0,-100.00,ENE,69,4.0,10.0,37,-99.99,,,-99.99,,2015-05-29 20:51:00,
2015-05-29 15:00:00,75.0,45.0,-100.00,NNW,330,5.0,12.0,35,-99.99,,,-99.99,,2015-05-29 21:00:00,
2015-05-29 15:32:00,75.0,45.0,-100.00,NNW,330,5.0,12.0,35,-99.99,,,-99.99,,2015-05-29 21:32:00,
2015-05-29 15:42:00,75.0,45.0,-100.00,NNW,330,5.0,12.0,35,-99.99,,,-99.99,,2015-05-29 21:42:00,
2015-05-29 15:52:00,75.0,45.0,-100.00,NNW,330,5.0,12.0,35,-99.99,,,-99.99,,2015-05-29 21:52:00,
2015-05-29 16:00:00,76.0,46.0,-100.00,NNE,27,5.0,13.0,34,-99.99,,,-99.99,,2015-05-29 22:00:00,
2015-05-29 16:31:00,76.0,46.0,-100.00,NNE,27,5.0,13.0,34,-99.99,,,-99.99,,2015-05-29 22:31:00,
2015-05-29 16:42:00,76.0,46.0,-100.00,NNE,27,5.0,13.0,34,-99.99,,,-99.99,,2015-05-29 22:42:00,
2015-05-29 16:52:00,76.0,46.0,-100.00,NNE,27,5.0,13.0,34,-99.99,,,-99.99,,2015-05-29 22:52:00,
2015-05-29 17:00:00,77.0,44.0,-100.00,East,87,5.0,14.0,31,-99.99,,,-99.99,,2015-05-29 23:00:00,
2015-05-29 17:31:00,77.0,44.0,-100.00,East,87,5.0,14.0,31,-99.99,,,-99.99,,2015-05-29 23:31:00,
2015-05-29 17:42:00,77.0,44.0,-100.00,East,87,5.0,14.0,31,-99.99,,,-99.99,,2015-05-29 23:42:00,
2015-05-29 17:52:00,77.0,44.0,-100.00,East,87,5.0,14.0,31,-99.99,,,-99.99,,2015-05-29 23:52:00,
2015-05-29 18:00:00,77.0,44.0,-100.00,North,350,4.0,11.0,31,-99.99,,,-99.99,,2015-05-30 00:00:00,
2015-05-29 18:32:00,77.0,44.0,-100.00,North,350,4.0,11.0,31,-99.99,,,-99.99,,2015-05-30 00:32:00,
2015-05-29 18:42:00,77.0,44.0,-100.00,North,350,4.0,11.0,31,-99.99,,,-99.99,,2015-05-30 00:42:00,
2015-05-29 18:51:00,77.0,44.0,-100.00,North,350,4.0,11.0,31,-99.99,,,-99.99,,2015-05-30 00:51:00,
2015-05-29 19:00:00,76.0,42.0,-100.00,NE,39,6.0,10.0,30,-99.99,,,-99.99,,2015-05-30 01:00:00,
2015-05-29 19:31:00,76.0,42.0,-100.00,NE,39,6.0,10.0,30,-99.99,,,-99.99,,2015-05-30 01:31:00,
2015-05-29 19:42:00,76.0,42.0,-100.00,NE,39,6.0,10.0,30,-99.99,,,-99.99,,2015-05-30 01:42:00,
2015-05-29 19:51:00,76.0,42.0,-100.00,NE,39,6.0,10.0,30,-99.99,,,-99.99,,2015-05-30 01:51:00,
2015-05-29 20:00:00,71.0,45.0,-100.00,SSW,199,4.0,10.0,40,-99.99,,,-99.99,,2015-05-30 02:00:00,
2015-05-29 20:31:00,71.0,45.0,-100.00,SSW,199,4.0,10.0,40,-99.99,,,-99.99,,2015-05-30 02:31:00,
2015-05-29 20:42:00,71.0,45.0,-100.00,SSW,199,4.0,10.0,40,-99.99,,,-99.99,,2015-05-30 02:42:00,
2015-05-29 20:51:00,71.0,45.0,-100.00,SSW,199,4.0,10.0,40,-99.99,,,-99.99,,2015-05-30 02:51:00,